Flag for Paraguay Weather past 2 weeks in Asuncion, Paraguay

Now
72 °F

Clear.


Feels Like: 69 °F
Forecast: 72 / 95 °F
Wind: No wind

Location: Asuncion / Aeropuerto

Current Time: Oct 25, 2014 at 5:57:34 AM

Latest Report: Oct 25, 2014 at 5:00 AM


Visibility: 5 mi

Pressure: 29.83 "Hg

Humidity: 88%

Dew point: 68 °F

Location of AsuncionLocation

Historic Weather in Asuncion — Graph

°F

Asuncion temperature yesterday

Maximum temperature yesterday: 97 °F (at 2:00 PM)
Minimum temperature yesterday: 72 °F (at 5:00 AM)
Average temperature yesterday: 85 °F

Past Weeks' High & Low Weather Summary

 TemperatureHumidityPressure
High106 °F (Oct 16, 2:00 PM)100% (Oct 12, 7:00 AM)30.07 "Hg (Oct 12, 7:00 AM)
Low61 °F (Oct 11, 6:00 AM)14% (Oct 21, 3:00 PM)29.53 "Hg (Oct 18, 5:00 PM)
Average83 °F59%29.85 "Hg
* Reported Oct 10 5:00 AM — Oct 25 5:00 AM, Asuncion, Weather by CustomWeather, © 2014

Note: Actual official high and low records may vary slightly from our data, if they occured in-between our weather recording intervals... More about our weather records

Advertising

Asuncion weather history for previous 24 hours

 ConditionsComfort  
Time TempWeatherWind HumidityBarometerVisibility
5:00 AM
Oct 25
72 °FClear.No wind88%29.83 "Hg5 mi
4:00 AM72 °FClear.3 mph88%29.80 "Hg5 mi
3:00 AM72 °FClear.3 mph88%29.80 "Hg4 mi
2:00 AM73 °FClear.No wind83%29.83 "Hg4 mi
1:00 AM75 °FClear.No wind78%29.86 "Hg6 mi
12:00 AM79 °FClear.No wind70%29.86 "Hg6 mi
11:00 PM
Oct 24
79 °FClear.3 mph70%29.86 "Hg10 mi
10:00 PM79 °FClear.2 mph70%29.86 "Hg10 mi
9:00 PM81 °FClear.No wind66%29.83 "Hg10 mi
8:00 PM84 °FClear.5 mph58%29.80 "Hg10 mi
7:00 PM88 °FPassing clouds.3 mph46%29.77 "HgN/A
6:00 PM93 °FPassing clouds.7 mph26%29.77 "HgN/A
5:00 PM95 °FScattered clouds.9 mph23%29.77 "HgN/A
4:00 PM95 °FScattered clouds.8 mph30%29.77 "HgN/A
3:00 PM97 °FScattered clouds.5 mph30%29.80 "HgN/A
2:00 PM97 °FScattered clouds.5 mph30%29.83 "HgN/A
1:00 PM95 °FScattered clouds.7 mph28%29.89 "HgN/A
12:00 PM95 °FScattered clouds.6 mph30%29.89 "HgN/A
11:00 AM91 °FScattered clouds.3 mph38%29.92 "HgN/A
10:30 AM90 °FSunny.3 mph43%29.92 "Hg10 mi
10:00 AM90 °FSunny.3 mph46%29.92 "Hg10 mi
9:30 AM90 °FSunny.No wind43%29.92 "Hg10 mi
9:00 AM86 °FSunny.No wind49%29.89 "Hg10 mi
8:30 AM84 °FSunny.No wind51%29.89 "Hg10 mi
8:00 AM81 °FSunny.No wind58%29.89 "Hg10 mi
7:00 AM72 °FSunny.No wind78%29.89 "Hg10 mi
6:00 AM72 °FClear.No wind73%29.86 "Hg10 mi
5:00 AM72 °FClear.No wind78%29.83 "Hg10 mi
Weather by CustomWeather, © 2014

See weather overviewHow to use our weather pages